Regional Weather Roundup
Issued by NWS Jackson, KY

Home | Current Version | Previous Version | Text Only | Print | Product List | Glossary On
Versions: 1 2 3 4 5 6 7 8 9 10 11 12 13 14 15 16 17 18 19 20 21 22 23 24 25 26 27 28 29 30 31 32 33 34 35 36 37 38 39 40 41 42 43 44 45 46 47 48 49 50
000
ASUS43 KJKL 211610
RWRJKL

EAST KENTUCKY HOURLY WEATHER ROUNDUP
NATIONAL WEATHER SERVICE JACKSON KY
1200 PM EDT THU SEP 21 2017

NOTE: "FAIR" INDICATES FEW OR NO CLOUDS BELOW 12,000 FEET WITH
NO SIGNIFICANT WEATHER AND/OR OBSTRUCTIONS TO VISIBILITY.

* THESE REPORTS ARE NOT UNDER NWS QUALITY CONTROL AND MAY NOT
  REPORT WEATHER SUCH AS PRECIPITATION AND FOG.

KYZ079-080-083-085-087-088-110-112-115-119-120-211700
...EASTERN KENTUCKY...

CITY           SKY/WX    TMP DP  RH WIND       PRES   REMARKS
JACKSON        SUNNY     79  67  66 CALM      30.15F
LONDON         SUNNY     81  67  62 E5        30.14F
SOMERSET*      SUNNY     81  66  61 CALM      30.14F
MONTICELLO*    SUNNY     83  69  62 NW6       30.15S
MIDDLESBORO*   SUNNY     74  67  77 CALM      30.15F
HARLAN APT*    MOSUNNY   77  64  65 CALM      30.16F
PIKE CO APT*     N/A     76  70  82 CALM      30.16S
BIG SANDY APT* MOSUNNY   79  69  71 CALM      30.15F
MOREHEAD APT*  MOSUNNY   82  68  61 CALM      30.15S
$$

KYZ035-036-041-042-044-050-067-078-099-211700
...CENTRAL KENTUCKY...

CITY           SKY/WX    TMP DP  RH WIND       PRES   REMARKS
FLEMING/MASON* SUNNY     81  67  63 CALM      30.15S
DANVILLE*      MOSUNNY   81  68  65 CALM      30.15S
LEXINGTON      SUNNY     84  70  62 CALM      30.14S
FRANKFORT      SUNNY     85  69  58 CALM      30.12S
LOUISVILLE     MOSUNNY   87  72  60 CALM      30.10F HX  93
LEBANON*         N/A     82  68  61 CALM      30.13S
GLASGOW*       SUNNY     85  69  58 N3        30.12S
BOWLING GREEN  SUNNY     85  74  69 E3        30.11S HX  92
$$

KYZ091>093-OHZ055-061-077-WVZ005-015-034-035-042-211700
...SOUTHERN OHIO/WEST VIRGINIA...

CITY           SKY/WX    TMP DP  RH WIND       PRES   REMARKS
COVINGTON      MOSUNNY   84  73  69 W5        30.12S HX  90
COLUMBUS       MOSUNNY   84  69  60 CALM      30.11S
DAYTON         MOSUNNY   83  71  67 SW6       30.12F
WILMINGTON     SUNNY     83  72  69 NW3       30.12S
HUNTINGTON     SUNNY     82  68  62 NE3       30.12F
CHARLESTON     MOSUNNY   80  66  62 CALM      30.13F
PINEVILLE*     PTSUNNY   77  65  67 MISG      30.21F
BECKLEY        MOSUNNY   73  64  73 NE5       30.20S
BLUEFIELD      MOSUNNY   72  60  66 CALM      30.21F
LOGAN CO APT*    N/A     79  66  65 CALM      30.16F
$$

VAZ002-007-008-TNZ017-027-036-066-071-211700
...SOUTHWEST VIRGINIA/EAST TENNESSEE...

CITY           SKY/WX    TMP DP  RH WIND       PRES   REMARKS
WISE*          PTSUNNY   73  61  64 N7        30.22F
JONESVILLE*      N/A     81  64  57 CALM      30.17F
ABINGDON*      PTSUNNY   76  64  64 CALM      30.18S
BRISTOL        MOSUNNY   79  65  62 CALM      30.15F
MORRISTOWN*    MOSUNNY   82  64  54 VRB5      30.13S
KNOXVILLE      MOSUNNY   81  67  62 CALM      30.11F
LAFOLLETTE*    SUNNY     81  68  65 CALM      30.16F
OAK RIDGE      SUNNY     82  66  58 CALM      30.13F
CROSSVILLE     SUNNY     79  66  64 N7        30.17S
NASHVILLE      PTSUNNY   86  72  62 VRB5      30.12R HX  92
$$

...KEY TO REMARKS...
VSB - VISIBILITY IN MILES
WCI - WIND CHILL INDEX
HX  - HEAT INDEX

$$



USA.gov is the U.S. government's official web portal to all federal, state and local government web resources and services.